Total_Precipitation_Accumulation
1.92 1.95 2.05 2.06 2.05 2.11 2.06 2.02 2.06 2.17 2.20 2.15 2.09 2.13 2.16 2.14 2.21 2.27 2.03 2.16 2.29 2.33 2.34 2.50 2.55 2.69 2.77 2.75 2.88 3.05 3.36 3.64 3.25 2.60 2.46 2.44 2.58 2.52 2.40 2.14 1.90 1.83 1.66
1.94 2.09 2.26 2.34 2.35 2.29 2.08 1.97 2.04 2.10 2.12 2.17 2.17 2.14 2.07 2.10 2.32 2.38 2.18 2.27 2.36 2.31 2.33 2.48 2.37 2.60 2.81 2.76 2.86 2.85 3.01 3.40 3.26 2.93 2.83 2.76 2.75 2.61 2.57 2.39 2.03 1.83 1.76
2.19 2.42 2.62 2.73 2.61 2.44 2.30 2.16 2.13 2.14 2.17 2.27 2.33 2.33 2.35 2.42 2.44 2.49 2.55 2.49 2.39 2.31 2.36 2.36 2.32 2.56 2.57 2.69 2.82 2.77 2.78 2.94 3.18 3.06 2.95 3.03 2.96 2.83 2.79 2.56 2.34 2.29 1.93
1.89 2.22 2.47 2.63 2.50 2.40 2.36 2.21 2.13 2.15 2.26 2.37 2.38 2.51 2.70 2.80 2.80 2.76 2.62 2.54 2.48 2.42 2.38 2.32 2.27 2.31 2.39 2.53 2.62 2.73 2.81 2.94 3.10 3.11 3.11 3.21 3.17 3.20 3.25 2.99 2.79 2.68 2.33
1.76 1.90 2.16 2.44 2.30 2.03 1.97 1.93 1.90 1.99 2.12 2.42 2.59 2.69 2.97 3.12 2.92 2.93 2.86 2.73 2.75 2.54 2.40 2.31 2.16 2.18 2.28 2.35 2.24 2.42 2.61 2.75 2.79 2.89 2.96 3.18 3.22 3.31 3.29 3.17 3.01 2.99 2.78
1.70 1.84 2.02 2.14 1.98 1.77 1.66 1.72 1.79 1.91 2.10 2.29 2.43 2.54 2.60 2.41 2.57 2.58 2.56 2.64 2.69 2.56 2.46 2.41 2.26 2.13 2.08 2.02 1.92 1.97 2.12 2.27 2.45 2.72 2.81 3.00 3.18 3.35 3.57 3.62 3.45 3.24 3.03
1.72 1.74 1.86 1.97 2.01 1.91 1.69 1.74 1.86 1.99 2.10 2.19 2.24 2.27 2.23 2.30 2.35 2.09 2.01 2.01 2.19 2.30 2.35 2.35 2.05 1.87 1.99 1.88 1.91 1.90 1.90 2.05 2.20 2.47 2.63 2.71 2.97 3.21 3.52 3.61 3.64 3.56 3.33
1.77 1.80 1.92 2.06 2.09 2.07 2.02 2.00 2.11 2.21 2.23 2.24 2.30 2.32 2.35 2.30 2.22 1.98 1.95 1.86 1.96 2.07 2.16 2.20 2.14 2.06 2.08 2.15 2.07 1.91 1.78 1.90 2.07 2.01 2.02 2.19 2.48 2.92 3.17 3.22 3.40 3.44 3.29
1.92 1.96 2.04 2.19 2.26 2.30 2.38 2.41 2.48 2.49 2.35 2.34 2.45 2.51 2.48 2.39 2.30 2.09 2.06 1.92 1.98 1.99 2.01 2.02 2.03 1.97 2.12 2.06 1.95 1.89 1.86 1.91 1.89 1.88 1.82 1.86 2.01 2.28 2.68 2.86 2.95 2.92 2.76
2.07 2.20 2.25 2.42 2.55 2.52 2.62 2.77 2.92 2.94 2.80 2.82 2.70 2.56 2.46 2.38 2.40 2.08 1.99 1.83 1.87 1.93 2.03 1.98 1.92 1.83 1.88 1.85 1.79 1.89 1.86 1.87 1.94 1.87 1.73 1.64 1.58 1.78 2.20 2.37 2.48 2.57 2.42
2.31 2.38 2.42 2.58 2.73 2.86 3.07 3.27 3.31 3.24 3.24 3.14 2.86 2.74 2.72 2.66 2.46 1.98 1.84 1.70 1.74 1.92 1.98 1.95 1.87 1.89 1.69 1.64 1.62 1.62 1.66 1.71 1.83 1.85 1.79 1.71 1.72 1.74 1.85 2.07 2.28 2.41 2.37
2.40 2.50 2.65 2.76 2.78 2.88 3.27 3.41 3.44 3.41 3.29 3.10 2.95 2.71 2.59 2.51 2.29 1.98 1.79 1.79 1.89 1.94 1.91 1.86 1.87 1.82 1.63 1.59 1.52 1.49 1.55 1.50 1.47 1.59 1.61 1.57 1.59 1.61 1.70 1.90 2.12 2.26 2.31
2.37 2.53 2.69 2.83 3.04 3.26 3.46 3.48 3.46 3.45 3.30 3.10 2.93 2.67 2.58 2.64 2.53 2.21 1.99 1.96 1.98 1.84 1.80 1.86 1.81 1.70 1.50 1.33 1.35 1.36 1.29 1.23 1.34 1.46 1.48 1.41 1.41 1.46 1.56 1.74 1.90 2.09 2.09
2.26 2.40 2.52 2.61 2.70 2.87 3.13 3.13 3.00 2.98 3.03 3.01 2.92 2.75 2.66 2.65 2.58 2.31 2.05 2.01 1.97 1.91 1.84 1.84 1.70 1.60 1.40 1.27 1.31 1.27 1.20 1.26 1.38 1.41 1.43 1.42 1.41 1.44 1.48 1.56 1.72 1.87 1.95
2.05 2.13 2.16 2.20 2.28 2.40 2.50 2.63 2.63 2.61 2.61 2.62 2.60 2.54 2.40 2.31 2.41 2.34 2.10 2.07 2.12 2.17 2.09 1.92 1.75 1.64 1.50 1.40 1.40 1.45 1.50 1.54 1.49 1.46 1.53 1.59 1.57 1.48 1.44 1.52 1.74 1.84 1.83
2.06 2.03 2.04 2.09 2.14 2.15 2.23 2.29 2.31 2.19 2.07 1.97 1.92 1.90 1.84 1.90 2.05 1.96 1.87 1.93 2.04 2.11 1.95 1.78 1.76 1.73 1.65 1.62 1.63 1.64 1.63 1.63 1.59 1.63 1.65 1.67 1.65 1.57 1.52 1.55 1.70 1.80 1.80
2.32 2.23 2.14 2.07 2.07 2.09 2.10 2.18 2.16 2.06 1.92 1.76 1.66 1.58 1.53 1.60 1.70 1.69 1.72 1.83 1.98 2.06 1.88 1.84 1.82 1.80 1.71 1.68 1.72 1.71 1.65 1.64 1.70 1.70 1.71 1.72 1.81 1.85 1.85 1.82 1.83 1.95 1.97
2.45 2.36 2.20 2.07 2.01 2.01 2.02 2.06 2.15 2.23 2.14 1.94 1.72 1.55 1.44 1.39 1.44 1.56 1.73 1.83 1.86 1.84 1.75 1.78 1.77 1.79 1.81 1.82 1.80 1.79 1.75 1.76 1.76 1.77 1.83 1.88 1.99 2.06 2.13 2.09 2.04 2.02 2.05
2.30 2.18 2.05 2.01 2.01 2.01 2.06 2.09 2.07 2.13 2.11 2.05 1.89 1.72 1.60 1.51 1.50 1.57 1.60 1.54 1.63 1.71 1.73 1.72 1.68 1.68 1.74 1.77 1.77 1.76 1.77 1.82 1.86 1.93 1.95 1.99 2.07 2.10 2.07 2.05 2.05 2.13 2.16
2.35 2.32 2.12 2.05 2.16 2.21 2.20 2.23 2.20 2.27 2.29 2.20 1.98 1.76 1.66 1.52 1.41 1.43 1.45 1.53 1.70 1.72 1.70 1.65 1.64 1.65 1.71 1.78 1.82 1.82 1.84 1.88 1.97 2.07 2.08 2.09 2.13 2.13 2.07 2.08 2.17 2.23 2.19
2.28 2.27 2.19 2.07 2.13 2.28 2.30 2.30 2.29 2.31 2.29 2.26 2.10 1.92 1.80 1.55 1.49 1.52 1.58 1.66 1.77 1.75 1.72 1.67 1.65 1.59 1.59 1.64 1.69 1.73 1.78 1.88 1.93 2.01 2.08 2.13 2.19 2.18 2.13 2.18 2.26 2.35 2.41
2.12 2.06 1.92 1.77 1.85 1.96 2.04 2.07 2.12 2.10 2.13 2.13 2.05 1.88 1.79 1.55 1.55 1.59 1.64 1.72 1.75 1.75 1.68 1.65 1.60 1.52 1.51 1.55 1.63 1.77 1.84 1.85 1.91 2.01 2.07 2.12 2.21 2.21 2.29 2.36 2.38 2.44 2.52
1.89 1.84 1.73 1.57 1.58 1.74 1.81 1.87 1.95 1.93 1.91 1.88 1.79 1.71 1.66 1.61 1.57 1.56 1.58 1.60 1.64 1.65 1.61 1.59 1.55 1.54 1.59 1.65 1.71 1.79 1.86 1.86 1.84 1.88 1.97 2.04 2.13 2.20 2.27 2.33 2.32 2.40 2.45
1.80 1.79 1.76 1.55 1.51 1.67 1.76 1.87 1.86 1.82 1.83 1.81 1.70 1.66 1.60 1.62 1.60 1.53 1.52 1.55 1.59 1.60 1.60 1.59 1.54 1.49 1.55 1.64 1.69 1.68 1.70 1.71 1.72 1.79 1.88 2.01 2.06 2.13 2.23 2.26 2.23 2.25 2.31
1.78 1.79 1.84 1.73 1.66 1.68 1.76 1.83 1.78 1.71 1.67 1.66 1.66 1.70 1.71 1.66 1.65 1.66 1.67 1.71 1.70 1.65 1.58 1.55 1.58 1.56 1.54 1.55 1.55 1.55 1.61 1.54 1.52 1.58 1.66 1.81 1.87 1.97 2.05 2.05 2.09 2.16 2.21
1.77 1.78 1.87 1.82 1.76 1.78 1.88 1.94 1.93 1.86 1.78 1.71 1.69 1.70 1.77 1.82 1.82 1.81 1.81 1.82 1.81 1.74 1.65 1.58 1.51 1.47 1.48 1.46 1.45 1.50 1.46 1.32 1.32 1.46 1.51 1.59 1.72 1.84 1.90 1.90 1.86 1.94 2.00